UAL1289 KCHS-KEWR

Flight info

Callsign UAL1289
Flight time 1h 31m
Altitude 37000
Route SWPFX3 FILLI LCAPE ALWZZ OGRAE Q99 QUART PHLBO4
Aircraft A320/M-SDE3FGHIRWY/LB1

Departure

Time 2026-05-08 12:03
Airport Charleston International Airport (KCHS)

Arrival

Time 2026-05-08 13:34
Airport Newark Liberty International Airport (KEWR)
Time Latitude Longitude Altitude Speed Heading
2026-05-08 11:45 32.88540 -80.03646 41 ft 0 kts 160°
2026-05-08 11:52 32.88541 -80.03646 41 ft 0 kts 160°
2026-05-08 11:55 32.88552 -80.03651 41 ft 4 kts 162°
2026-05-08 11:55 32.88578 -80.03659 38 ft 4 kts 169°
2026-05-08 11:56 32.88605 -80.03663 39 ft 4 kts 177°
2026-05-08 11:56 32.88632 -80.03664 39 ft 4 kts 184°
2026-05-08 11:56 32.88659 -80.03660 41 ft 4 kts 186°
2026-05-08 11:56 32.88685 -80.03660 39 ft 4 kts 161°
2026-05-08 11:57 32.88679 -80.03648 39 ft 4 kts 116°
2026-05-08 11:57 32.88673 -80.03621 41 ft 2 kts 113°
2026-05-08 11:57 32.88673 -80.03622 41 ft 1 kts 113°
2026-05-08 11:59 32.88659 -80.03572 40 ft 13 kts 107°
2026-05-08 11:59 32.88610 -80.03475 41 ft 14 kts 102°
2026-05-08 12:00 32.88684 -80.03440 41 ft 14 kts 330°
2026-05-08 12:00 32.88728 -80.03544 41 ft 16 kts 289°
2026-05-08 12:00 32.88773 -80.03637 41 ft 13 kts 346°
2026-05-08 12:00 32.88871 -80.03625 41 ft 15 kts
2026-05-08 12:01 32.88982 -80.03607 41 ft 17 kts
2026-05-08 12:01 32.89071 -80.03513 38 ft 17 kts 54°
2026-05-08 12:01 32.89144 -80.03394 41 ft 13 kts 58°
2026-05-08 12:01 32.89194 -80.03305 40 ft 14 kts 56°
2026-05-08 12:02 32.89241 -80.03245 40 ft 7 kts 348°
2026-05-08 12:02 32.89283 -80.03282 40 ft 0 kts 327°
2026-05-08 12:02 32.89495 -80.03443 39 ft 72 kts 327°
2026-05-08 12:03 32.90089 -80.03890 42 ft 127 kts 328°
2026-05-08 12:03 32.90954 -80.04540 142 ft 159 kts 326°
2026-05-08 12:03 32.91882 -80.05299 680 ft 165 kts 327°
2026-05-08 12:03 32.92903 -80.05797 1327 ft 158 kts
2026-05-08 12:04 32.93951 -80.05499 1960 ft 157 kts 21°
2026-05-08 12:04 32.95049 -80.05015 2234 ft 179 kts 22°
2026-05-08 12:04 32.96293 -80.04454 2536 ft 201 kts 22°
2026-05-08 12:04 32.97631 -80.03867 3136 ft 207 kts 20°
2026-05-08 12:05 32.98017 -80.03701 3234 ft 212 kts 20°
2026-05-08 12:05 32.99013 -80.03273 3462 ft 226 kts 19°
2026-05-08 12:05 33.00588 -80.02623 3845 ft 250 kts 17°
2026-05-08 12:05 33.02271 -80.01951 4520 ft 262 kts 15°
2026-05-08 12:06 33.04027 -80.01262 5303 ft 270 kts 13°
2026-05-08 12:06 33.05837 -80.00556 6084 ft 278 kts 12°
2026-05-08 12:06 33.07698 -79.99832 6841 ft 285 kts 11°
2026-05-08 12:06 33.09601 -79.99092 7600 ft 290 kts 10°
2026-05-08 12:07 33.11534 -79.98340 8403 ft 294 kts
2026-05-08 12:07 33.13493 -79.97579 9191 ft 299 kts
2026-05-08 12:07 33.15485 -79.96803 9977 ft 303 kts
2026-05-08 12:07 33.17537 -79.96007 10400 ft 321 kts
2026-05-08 12:08 33.19739 -79.95164 10662 ft 341 kts
2026-05-08 12:08 33.22024 -79.94289 11234 ft 346 kts
2026-05-08 12:08 33.24362 -79.93606 11908 ft 347 kts
2026-05-08 12:08 33.26724 -79.92937 12599 ft 351 kts
2026-05-08 12:09 33.29110 -79.92266 13307 ft 354 kts
2026-05-08 12:09 33.31517 -79.91595 13975 ft 357 kts
2026-05-08 12:09 33.33946 -79.90922 14561 ft 360 kts
2026-05-08 12:09 33.36397 -79.90247 15149 ft 363 kts
2026-05-08 12:10 33.38870 -79.89565 15729 ft 367 kts
2026-05-08 12:10 33.41368 -79.88875 16305 ft 370 kts
2026-05-08 12:10 33.43886 -79.88178 16886 ft 374 kts
2026-05-08 12:10 33.46431 -79.87470 17473 ft 377 kts
2026-05-08 12:11 33.48998 -79.86757 18062 ft 381 kts
2026-05-08 12:11 33.51594 -79.86037 18609 ft 384 kts
2026-05-08 12:11 33.54213 -79.85313 19147 ft 388 kts
2026-05-08 12:11 33.56859 -79.84584 19687 ft 391 kts
2026-05-08 12:12 33.59526 -79.83849 20216 ft 395 kts
2026-05-08 12:12 33.62220 -79.83105 20725 ft 399 kts
2026-05-08 12:12 33.64933 -79.82351 21222 ft 403 kts
2026-05-08 12:12 33.67682 -79.81582 21713 ft 407 kts
2026-05-08 12:13 33.70454 -79.80805 22201 ft 411 kts
2026-05-08 12:13 33.73248 -79.80024 22687 ft 414 kts
2026-05-08 12:13 33.76068 -79.79239 23151 ft 418 kts
2026-05-08 12:13 33.78916 -79.78444 23631 ft 422 kts
2026-05-08 12:14 33.81782 -79.77641 24116 ft 423 kts
2026-05-08 12:14 33.84654 -79.76832 24564 ft 425 kts
2026-05-08 12:14 33.87536 -79.75965 24986 ft 430 kts
2026-05-08 12:14 33.90429 -79.74976 25408 ft 434 kts
2026-05-08 12:15 33.93328 -79.73904 25817 ft 438 kts
2026-05-08 12:15 33.96240 -79.72790 26218 ft 440 kts
2026-05-08 12:15 33.99161 -79.71669 26614 ft 442 kts
2026-05-08 12:15 34.02106 -79.70552 26998 ft 444 kts
2026-05-08 12:16 34.05056 -79.69453 27412 ft 445 kts
2026-05-08 12:16 34.08032 -79.68364 27765 ft 447 kts
2026-05-08 12:16 34.11015 -79.67281 28139 ft 449 kts
2026-05-08 12:16 34.14015 -79.66194 28511 ft 451 kts
2026-05-08 12:17 34.17028 -79.65098 28882 ft 453 kts
2026-05-08 12:17 34.20056 -79.63994 29249 ft 456 kts
2026-05-08 12:17 34.23097 -79.62885 29618 ft 458 kts
2026-05-08 12:17 34.26154 -79.61768 29973 ft 460 kts
2026-05-08 12:18 34.29221 -79.60641 30324 ft 462 kts
2026-05-08 12:18 34.32320 -79.59503 30514 ft 468 kts
2026-05-08 12:18 34.35450 -79.58359 30724 ft 472 kts
2026-05-08 12:18 34.38603 -79.57201 31004 ft 474 kts
2026-05-08 12:19 34.41759 -79.56033 31411 ft 473 kts
2026-05-08 12:19 34.44896 -79.54863 31862 ft 471 kts
2026-05-08 12:19 34.48011 -79.53701 32326 ft 468 kts
2026-05-08 12:19 34.51079 -79.52562 32773 ft 466 kts
2026-05-08 12:20 34.54165 -79.51381 33284 ft 469 kts
2026-05-08 12:20 34.57193 -79.49717 33684 ft 485 kts 15°
2026-05-08 12:20 34.59191 -79.48393 33954 ft 486 kts 15°
2026-05-08 12:20 34.63105 -79.45763 34459 ft 485 kts 16°
2026-05-08 12:21 34.66044 -79.43766 34811 ft 484 kts 15°
2026-05-08 12:21 34.68032 -79.42462 35032 ft 476 kts 11°
2026-05-08 12:21 34.71043 -79.40997 35400 ft 456 kts
2026-05-08 12:21 34.74056 -79.40129 35745 ft 437 kts 354°
2026-05-08 12:22 34.77047 -79.39503 36063 ft 436 kts 354°
2026-05-08 12:22 34.80037 -79.38877 36415 ft 436 kts 353°
2026-05-08 12:22 34.83028 -79.38251 36647 ft 436 kts 353°
2026-05-08 12:22 34.86016 -79.37621 36924 ft 436 kts 353°
2026-05-08 12:23 34.88960 -79.36999 37087 ft 436 kts 353°
2026-05-08 12:23 34.91948 -79.36368 37112 ft 436 kts 353°
2026-05-08 12:23 34.97920 -79.35093 37086 ft 436 kts 353°
2026-05-08 12:24 35.03893 -79.33809 37141 ft 436 kts 353°
2026-05-08 12:24 35.09883 -79.32521 37095 ft 437 kts 353°
2026-05-08 12:25 35.15862 -79.31244 37128 ft 437 kts 353°
2026-05-08 12:25 35.21837 -79.29964 37132 ft 437 kts 353°
2026-05-08 12:26 35.27849 -79.28673 37188 ft 438 kts 353°
2026-05-08 12:26 35.33849 -79.27375 37130 ft 436 kts 353°
2026-05-08 12:27 35.39826 -79.26078 37122 ft 436 kts 353°
2026-05-08 12:27 35.45816 -79.24795 37133 ft 437 kts 353°
2026-05-08 12:28 35.51809 -79.23501 37140 ft 438 kts 353°
2026-05-08 12:28 35.57808 -79.22196 37146 ft 438 kts 353°
2026-05-08 12:29 35.63806 -79.20899 37148 ft 438 kts 353°
2026-05-08 12:29 35.69807 -79.19586 37144 ft 438 kts 353°
2026-05-08 12:30 35.72820 -79.18797 37139 ft 453 kts
2026-05-08 12:30 35.75821 -79.17313 37167 ft 479 kts 13°
2026-05-08 12:30 35.78697 -79.15050 37114 ft 496 kts 20°
2026-05-08 12:30 35.81504 -79.12592 37105 ft 495 kts 20°
2026-05-08 12:31 35.87068 -79.07692 37092 ft 496 kts 20°
2026-05-08 12:31 35.92727 -79.02732 37088 ft 496 kts 20°
2026-05-08 12:32 35.98362 -78.97811 37109 ft 496 kts 20°
2026-05-08 12:32 36.03955 -78.92927 37114 ft 495 kts 20°
2026-05-08 12:33 36.09574 -78.88007 37127 ft 495 kts 20°
2026-05-08 12:33 36.15188 -78.83081 37131 ft 495 kts 20°
2026-05-08 12:34 36.20814 -78.78142 37134 ft 496 kts 20°
2026-05-08 12:34 36.26463 -78.73160 37092 ft 493 kts 20°
2026-05-08 12:35 36.32008 -78.68250 37091 ft 494 kts 20°
2026-05-08 12:35 36.37604 -78.63303 37102 ft 494 kts 20°
2026-05-08 12:36 36.43211 -78.58347 37127 ft 495 kts 20°
2026-05-08 12:36 36.48860 -78.53559 37126 ft 487 kts 16°
2026-05-08 12:37 36.54593 -78.49138 37116 ft 483 kts 14°
2026-05-08 12:37 36.60347 -78.44791 37121 ft 485 kts 15°
2026-05-08 12:38 36.66076 -78.40331 37130 ft 487 kts 16°
2026-05-08 12:38 36.71775 -78.35806 37100 ft 483 kts 16°
2026-05-08 12:39 36.77438 -78.31304 37095 ft 483 kts 16°
2026-05-08 12:39 36.83120 -78.26818 37095 ft 484 kts 15°
2026-05-08 12:40 36.88812 -78.22325 37115 ft 484 kts 16°
2026-05-08 12:40 36.94505 -78.17812 37095 ft 484 kts 16°
2026-05-08 12:41 37.00194 -78.13295 37101 ft 485 kts 16°
2026-05-08 12:41 37.05891 -78.08772 37098 ft 486 kts 16°
2026-05-08 12:42 37.11593 -78.04221 37186 ft 486 kts 17°
2026-05-08 12:42 37.17274 -77.99677 37077 ft 482 kts 17°
2026-05-08 12:43 37.22941 -77.95159 37074 ft 483 kts 17°
2026-05-08 12:43 37.28624 -77.90619 37074 ft 485 kts 17°
2026-05-08 12:44 37.34309 -77.86043 37132 ft 486 kts 17°
2026-05-08 12:44 37.39996 -77.81453 37115 ft 486 kts 17°
2026-05-08 12:45 37.45685 -77.76868 37128 ft 486 kts 17°
2026-05-08 12:45 37.51373 -77.72281 37124 ft 486 kts 17°
2026-05-08 12:46 37.57057 -77.67745 37198 ft 483 kts 17°
2026-05-08 12:46 37.62758 -77.63279 37200 ft 482 kts 17°
2026-05-08 12:47 37.68457 -77.58817 37197 ft 482 kts 17°
2026-05-08 12:47 37.74158 -77.54364 37196 ft 482 kts 17°
2026-05-08 12:48 37.79858 -77.49915 37194 ft 482 kts 17°
2026-05-08 12:48 37.85558 -77.45468 37194 ft 481 kts 17°
2026-05-08 12:49 37.91266 -77.41017 37192 ft 482 kts 17°
2026-05-08 12:49 37.96975 -77.36567 37188 ft 482 kts 17°
2026-05-08 12:50 38.02696 -77.32150 37229 ft 481 kts 17°
2026-05-08 12:50 38.08429 -77.27740 37229 ft 482 kts 17°
2026-05-08 12:51 38.17021 -77.21132 37211 ft 481 kts 16°
2026-05-08 12:52 38.22764 -77.16743 37273 ft 482 kts 16°
2026-05-08 12:52 38.31398 -77.10208 37268 ft 482 kts 16°
2026-05-08 12:53 38.37164 -77.05846 37267 ft 482 kts 16°
2026-05-08 12:53 38.42927 -77.01507 37330 ft 480 kts 16°
2026-05-08 12:54 38.48594 -76.96938 37033 ft 496 kts 30°
2026-05-08 12:54 38.53693 -76.90798 37062 ft 507 kts 32°
2026-05-08 12:55 38.58781 -76.84538 37058 ft 508 kts 32°
2026-05-08 12:55 38.63848 -76.78269 37053 ft 506 kts 32°
2026-05-08 12:56 38.68914 -76.72014 37071 ft 506 kts 32°
2026-05-08 12:56 38.73982 -76.65762 37076 ft 505 kts 31°
2026-05-08 12:57 38.76640 -76.62918 37079 ft 494 kts 25°
2026-05-08 12:57 38.79370 -76.60250 37080 ft 494 kts 25°
2026-05-08 12:57 38.84823 -76.54930 37064 ft 491 kts 25°
2026-05-08 12:58 38.87539 -76.52273 36195 ft 491 kts 25°
2026-05-08 12:58 38.90292 -76.49590 34807 ft 501 kts 24°
2026-05-08 12:58 38.93073 -76.46878 33730 ft 501 kts 24°
2026-05-08 12:58 38.95832 -76.44168 32783 ft 496 kts 25°
2026-05-08 12:59 38.98520 -76.41501 32262 ft 481 kts 25°
2026-05-08 12:59 39.01127 -76.38895 31820 ft 467 kts 26°
2026-05-08 12:59 39.03628 -76.36358 31289 ft 456 kts 28°
2026-05-08 12:59 39.06021 -76.33748 30863 ft 446 kts 31°
2026-05-08 13:00 39.08305 -76.31102 30447 ft 440 kts 32°
2026-05-08 13:00 39.10523 -76.28451 29996 ft 440 kts 33°
2026-05-08 13:00 39.12761 -76.25754 29562 ft 438 kts 33°
2026-05-08 13:00 39.14984 -76.23088 29153 ft 436 kts 32°
2026-05-08 13:01 39.17207 -76.20453 28743 ft 433 kts 32°
2026-05-08 13:01 39.19430 -76.17846 28349 ft 431 kts 32°
2026-05-08 13:01 39.21646 -76.15261 27964 ft 429 kts 32°
2026-05-08 13:01 39.23856 -76.12685 27546 ft 428 kts 32°
2026-05-08 13:02 39.26060 -76.10111 27150 ft 427 kts 32°
2026-05-08 13:02 39.28256 -76.07541 26763 ft 424 kts 32°
2026-05-08 13:02 39.30434 -76.04983 26396 ft 422 kts 32°
2026-05-08 13:02 39.32594 -76.02445 26028 ft 419 kts 31°
2026-05-08 13:03 39.34732 -75.99932 25672 ft 416 kts 31°
2026-05-08 13:03 39.36868 -75.97415 25305 ft 414 kts 31°
2026-05-08 13:03 39.38983 -75.94920 24956 ft 411 kts 31°
2026-05-08 13:03 39.41091 -75.92431 24598 ft 409 kts 31°
2026-05-08 13:04 39.43192 -75.89954 24236 ft 406 kts 31°
2026-05-08 13:04 39.44570 -75.88325 24004 ft 404 kts 31°
2026-05-08 13:04 39.46665 -75.85845 23653 ft 401 kts 31°
2026-05-08 13:04 39.48687 -75.83447 23272 ft 397 kts 31°
2026-05-08 13:05 39.50739 -75.81005 22932 ft 393 kts 31°
2026-05-08 13:05 39.52743 -75.78621 22595 ft 389 kts 31°
2026-05-08 13:05 39.54734 -75.76262 22256 ft 387 kts 31°
2026-05-08 13:05 39.56719 -75.73909 21926 ft 385 kts 31°
2026-05-08 13:06 39.58685 -75.71572 21594 ft 383 kts 32°
2026-05-08 13:06 39.60641 -75.69246 21269 ft 380 kts 32°
2026-05-08 13:06 39.62582 -75.66942 20940 ft 377 kts 32°
2026-05-08 13:06 39.64482 -75.64684 20618 ft 374 kts 32°
2026-05-08 13:07 39.66393 -75.62411 20299 ft 372 kts 32°
2026-05-08 13:07 39.68290 -75.60148 19981 ft 369 kts 33°
2026-05-08 13:07 39.70173 -75.57891 19578 ft 368 kts 33°
2026-05-08 13:07 39.72047 -75.55634 19215 ft 366 kts 33°
2026-05-08 13:08 39.73908 -75.53390 18836 ft 364 kts 34°
2026-05-08 13:08 39.75757 -75.51157 18474 ft 362 kts 34°
2026-05-08 13:08 39.77597 -75.48932 18080 ft 360 kts 34°
2026-05-08 13:08 39.79422 -75.46725 17700 ft 357 kts 34°
2026-05-08 13:09 39.81232 -75.44538 17326 ft 353 kts 34°
2026-05-08 13:09 39.83022 -75.42376 16978 ft 350 kts 34°
2026-05-08 13:09 39.84802 -75.40226 16611 ft 348 kts 35°
2026-05-08 13:09 39.86570 -75.38088 16257 ft 346 kts 35°
2026-05-08 13:10 39.88325 -75.35961 15916 ft 344 kts 35°
2026-05-08 13:10 39.90068 -75.33848 15569 ft 342 kts 35°
2026-05-08 13:10 39.91804 -75.31744 15223 ft 340 kts 36°
2026-05-08 13:10 39.93528 -75.29651 14880 ft 338 kts 36°
2026-05-08 13:11 39.95245 -75.27565 14537 ft 336 kts 36°
2026-05-08 13:11 39.96948 -75.25491 14213 ft 335 kts 36°
2026-05-08 13:11 39.98646 -75.23423 13855 ft 333 kts 36°
2026-05-08 13:11 40.00335 -75.21368 13485 ft 331 kts 36°
2026-05-08 13:12 40.02013 -75.19325 13148 ft 328 kts 36°
2026-05-08 13:12 40.03670 -75.17306 12816 ft 325 kts 36°
2026-05-08 13:12 40.05313 -75.15304 12485 ft 322 kts 37°
2026-05-08 13:12 40.06938 -75.13318 12152 ft 319 kts 37°
2026-05-08 13:13 40.08549 -75.11345 11861 ft 316 kts 37°
2026-05-08 13:13 40.10142 -75.09394 11536 ft 313 kts 37°
2026-05-08 13:13 40.11725 -75.07458 11223 ft 310 kts 37°
2026-05-08 13:13 40.13291 -75.05543 10917 ft 307 kts 37°
2026-05-08 13:14 40.14843 -75.03648 10637 ft 303 kts 37°
2026-05-08 13:14 40.16377 -75.01770 10369 ft 301 kts 37°
2026-05-08 13:14 40.17892 -74.99910 10056 ft 298 kts 37°
2026-05-08 13:14 40.19395 -74.98062 9765 ft 295 kts 37°
2026-05-08 13:15 40.20883 -74.96233 9487 ft 293 kts 37°
2026-05-08 13:15 40.22360 -74.94418 9218 ft 291 kts 37°
2026-05-08 13:15 40.23833 -74.92605 8953 ft 289 kts 37°
2026-05-08 13:15 40.25293 -74.90803 8686 ft 288 kts 38°
2026-05-08 13:16 40.26710 -74.88944 8416 ft 288 kts 40°
2026-05-08 13:16 40.28081 -74.87037 8154 ft 287 kts 41°
2026-05-08 13:16 40.29430 -74.85112 7937 ft 285 kts 42°
2026-05-08 13:16 40.30769 -74.83196 7875 ft 286 kts 41°
2026-05-08 13:17 40.32116 -74.81280 7789 ft 285 kts 41°
2026-05-08 13:17 40.33464 -74.79374 7700 ft 285 kts 41°
2026-05-08 13:17 40.34815 -74.77472 7611 ft 285 kts 41°
2026-05-08 13:17 40.36164 -74.75572 7513 ft 285 kts 41°
2026-05-08 13:18 40.37510 -74.73673 7415 ft 284 kts 41°
2026-05-08 13:18 40.38854 -74.71774 7321 ft 284 kts 41°
2026-05-08 13:18 40.40200 -74.69877 7225 ft 284 kts 41°
2026-05-08 13:18 40.41613 -74.68099 7128 ft 278 kts 31°
2026-05-08 13:19 40.43265 -74.66855 7032 ft 271 kts 16°
2026-05-08 13:19 40.45051 -74.66201 6933 ft 265 kts
2026-05-08 13:19 40.46858 -74.65730 6849 ft 265 kts
2026-05-08 13:19 40.48666 -74.65254 6742 ft 265 kts
2026-05-08 13:20 40.50468 -74.64777 6615 ft 264 kts
2026-05-08 13:20 40.52264 -74.64298 6494 ft 264 kts
2026-05-08 13:20 40.54063 -74.63815 6383 ft 263 kts
2026-05-08 13:20 40.55857 -74.63333 6250 ft 263 kts
2026-05-08 13:21 40.57641 -74.62853 6116 ft 261 kts
2026-05-08 13:21 40.59424 -74.62373 5989 ft 261 kts
2026-05-08 13:21 40.61202 -74.61895 5851 ft 261 kts
2026-05-08 13:21 40.62980 -74.61415 5718 ft 260 kts
2026-05-08 13:22 40.64749 -74.60937 5576 ft 260 kts
2026-05-08 13:22 40.66520 -74.60461 5456 ft 259 kts
2026-05-08 13:22 40.68281 -74.59989 5325 ft 258 kts
2026-05-08 13:22 40.70038 -74.59519 5191 ft 257 kts
2026-05-08 13:23 40.71790 -74.59051 5065 ft 257 kts
2026-05-08 13:23 40.73537 -74.58582 4951 ft 256 kts
2026-05-08 13:23 40.75278 -74.58113 4824 ft 255 kts
2026-05-08 13:23 40.77010 -74.57648 4686 ft 253 kts
2026-05-08 13:24 40.78738 -74.57180 4560 ft 254 kts
2026-05-08 13:24 40.80466 -74.56709 4427 ft 253 kts
2026-05-08 13:24 40.82192 -74.56243 4296 ft 253 kts
2026-05-08 13:24 40.83900 -74.55671 4158 ft 256 kts 19°
2026-05-08 13:25 40.85397 -74.54375 4025 ft 263 kts 41°
2026-05-08 13:25 40.86429 -74.52357 3896 ft 270 kts 64°
2026-05-08 13:25 40.86964 -74.49962 3771 ft 272 kts 72°
2026-05-08 13:25 40.87457 -74.47551 3638 ft 271 kts 72°
2026-05-08 13:26 40.87951 -74.45153 3510 ft 270 kts 72°
2026-05-08 13:26 40.88447 -74.42762 3372 ft 269 kts 72°
2026-05-08 13:26 40.88941 -74.40373 3241 ft 270 kts 72°
2026-05-08 13:26 40.89429 -74.38012 3112 ft 270 kts 72°
2026-05-08 13:27 40.89924 -74.35615 2982 ft 269 kts 72°
2026-05-08 13:27 40.90419 -74.33207 2994 ft 269 kts 72°
2026-05-08 13:27 40.90904 -74.30844 3017 ft 270 kts 72°
2026-05-08 13:27 40.91395 -74.28442 3010 ft 271 kts 72°
2026-05-08 13:28 40.91884 -74.26035 3009 ft 271 kts 72°
2026-05-08 13:28 40.92371 -74.23634 3008 ft 273 kts 73°
2026-05-08 13:28 40.92864 -74.21209 3009 ft 271 kts 72°
2026-05-08 13:28 40.93278 -74.18776 3001 ft 274 kts 84°
2026-05-08 13:29 40.93070 -74.16269 3004 ft 275 kts 108°
2026-05-08 13:29 40.92150 -74.14079 3005 ft 274 kts 133°
2026-05-08 13:29 40.90677 -74.12504 3009 ft 272 kts 152°
2026-05-08 13:29 40.89061 -74.11276 3003 ft 261 kts 153°
2026-05-08 13:30 40.87520 -74.10126 2992 ft 247 kts 153°
2026-05-08 13:30 40.86069 -74.09048 3000 ft 232 kts 153°
2026-05-08 13:30 40.84657 -74.08201 3002 ft 216 kts 169°
2026-05-08 13:30 40.83199 -74.08007 2930 ft 204 kts 189°
2026-05-08 13:31 40.81867 -74.08433 2698 ft 194 kts 208°
2026-05-08 13:31 40.80660 -74.09197 2435 ft 191 kts 211°
2026-05-08 13:31 40.79470 -74.09959 2183 ft 190 kts 211°
2026-05-08 13:31 40.78292 -74.10711 1917 ft 181 kts 211°
2026-05-08 13:32 40.77241 -74.11377 1691 ft 157 kts 211°
2026-05-08 13:32 40.76303 -74.11976 1481 ft 145 kts 211°
2026-05-08 13:32 40.75418 -74.12542 1291 ft 140 kts 212°
2026-05-08 13:32 40.74556 -74.13092 1093 ft 139 kts 212°
2026-05-08 13:33 40.73690 -74.13647 908 ft 137 kts 211°
2026-05-08 13:33 40.72829 -74.14196 719 ft 139 kts 212°
2026-05-08 13:33 40.71967 -74.14745 525 ft 137 kts 210°
2026-05-08 13:33 40.71109 -74.15292 344 ft 136 kts 209°
2026-05-08 13:34 40.70247 -74.15832 166 ft 137 kts 211°
2026-05-08 13:34 40.69397 -74.16373 30 ft 131 kts 210°
2026-05-08 13:34 40.68719 -74.16814 21 ft 86 kts 205°
2026-05-08 13:34 40.68348 -74.17060 23 ft 33 kts 216°
2026-05-08 13:35 40.68219 -74.17262 22 ft 20 kts 237°
2026-05-08 13:35 40.68163 -74.17370 22 ft 11 kts 235°
2026-05-08 13:35 40.68147 -74.17458 21 ft 11 kts 285°
2026-05-08 13:35 40.68187 -74.17556 21 ft 13 kts 297°
2026-05-08 13:36 40.68243 -74.17660 22 ft 15 kts 329°
2026-05-08 13:36 40.68313 -74.17749 22 ft 14 kts 297°
2026-05-08 13:36 40.68356 -74.17872 22 ft 16 kts 295°
2026-05-08 13:36 40.68388 -74.17960 22 ft 11 kts 297°
2026-05-08 13:37 40.68423 -74.18051 22 ft 10 kts 296°
2026-05-08 13:37 40.68461 -74.18134 22 ft 11 kts 307°
2026-05-08 13:37 40.68461 -74.18199 22 ft 9 kts 225°
2026-05-08 13:37 40.68432 -74.18227 22 ft 4 kts 214°
2026-05-08 13:38 40.68425 -74.18233 24 ft 2 kts 214°
2026-05-08 13:38 40.68421 -74.18237 23 ft 0 kts 214°